This is the latest recevied weather packets stored in our database for station/object WB0RXX. If no packets are shown the sender has not sent any weather packets the latest 10 day(s).
| Time | Temp. | Humidity | Pressure | Rain* | Wind** | Luminosity | Snow |
|---|---|---|---|---|---|---|---|
| 1777534804 | 5° C | 70% | 1019.8 hPa | 0 mm | - | - | - |
| 1777534219 | 5° C | 68% | 1019.8 hPa | 0 mm | - | - | - |
| 1777533604 | 5° C | 68% | 1019.7 hPa | 0 mm | - | - | - |
| 1777533004 | 5° C | 68% | 1019.9 hPa | 0 mm | - | - | - |
| 1777532404 | 5.56° C | 67% | 1019.9 hPa | 0 mm | - | - | - |
| 1777531804 | 5.56° C | 66% | 1019.9 hPa | 0 mm | - | - | - |
| 1777531204 | 5.56° C | 66% | 1019.9 hPa | 0 mm | - | - | - |
| 1777530603 | 6.11° C | 68% | 1020 hPa | 0 mm | - | - | - |
| 1777530004 | 6.11° C | 66% | 1019.9 hPa | 0 mm | - | - | - |
| 1777529404 | 6.11° C | 66% | 1019.8 hPa | 0 mm | - | - | - |
| 1777528804 | 6.11° C | 68% | 1019.7 hPa | 0 mm | - | - | - |
| 1777528204 | 6.11° C | 68% | 1019.8 hPa | 0 mm | - | - | - |
| 1777527604 | 6.11° C | 66% | 1019.8 hPa | 0 mm | - | - | - |
| 1777527018 | 6.67° C | 63% | 1019.8 hPa | 0 mm | - | - | - |
| 1777526419 | 6.67° C | 63% | 1019.6 hPa | 0 mm | - | - | - |
| 1777525804 | 7.22° C | 61% | 1019.5 hPa | 0 mm | - | - | - |
| 1777525207 | 7.78° C | 60% | 1019.3 hPa | 0 mm | - | - | - |
| 1777524603 | 7.78° C | 59% | 1019.2 hPa | 0 mm | - | - | - |
| 1777524020 | 7.78° C | 59% | 1019.1 hPa | 0 mm | - | - | - |
| 1777523403 | 7.78° C | 59% | 1019.1 hPa | 0 mm | - | - | - |
| 1777522805 | 8.33° C | 59% | 1019 hPa | 0 mm | - | - | - |
| 1777522203 | 8.33° C | 59% | 1019.1 hPa | 0 mm | - | - | - |
| 1777521604 | 8.33° C | 60% | 1019.1 hPa | 0 mm | - | - | - |
| 1777521004 | 8.33° C | 60% | 1018.9 hPa | 0 mm | - | - | - |
| 1777520404 | 8.33° C | 60% | 1018.8 hPa | 0 mm | - | - | - |
* Rain latest hour (hover to see other rain measurements)
** Current wind speed in m/s (hover to see current wind gust speed)